DECAYED
Showing default

YAOGAN 23, 40305 (Decayed)

Orbit data source: Space-Track

YAOGAN 23, 40305 was a payload satellite owned by PLA GAD (CN) in LEO that was launched on Fri, 14 Nov 2014 UTC via a CHANG ZHENG 2C launch vehicle from the Taiyaun Space Center, China (TSC). Payloads include a variety of satellites, spacecraft, and rockets equipped with specific instruments for various scientific and technological missions. These include communications satellites like Starlink; space stations such as the ISS; scientific satellites like the Hubble; Earth observation satellites from companies like Planet Labs, Umbra, and HawkEye 360; GPS; miniature CubeSats for education and research; and military/defense satellites.

Not visible in the next 10 days
YAOGAN 23 details
Identifier
40305, 2014-071A
Orbit
Decayed
Last TLE update2 weeks ago
Origin
Flag of CNPLA GAD (CN / PRC)
ManufacturerSAST
MissionDecayed Defense Radar Imaging
Bus & MotorJB-7, Unknown motor
Mass~2,000 kg wet, ~2,000 kg dry
Launch date (UTC)
2014-11-14 (10 years ago)
Launch vehicle
CHANG ZHENG 2C
Launch site
Taiyaun Space Center, China (TSC)
Object type
Payload
Rocket body
Debris
Shape & HBRBox + 2 Pan, 4 m
Radar Cross Section5.141 m², Large (>1 m²)

Expand to show TLE details & history

TLE from 2 weeks ago
0 YAOGAN 23
1 40305U 14071A   24347.60733468  .14564652  28361-5  28964-3 0  9992
2 40305  97.6603 349.9044 0005156 249.1520 259.6825 16.47071669560373
Epoch: 2024-12-12T14:34Z
Definitive object data (Epoch: 2024-12-12T14:34:33.716Z)
Latitude30.97561°
Longitude-125.91712°
Altitude151.83 km
Speed7.818 km/s
True Right ascension11h 38m 02s
True Declination30° 48' 36"
Sunlit
Object was in daylight at TLE epoch
Visualization observer readout
Observer readout values are unavailable because the object's trajectory could not be propagated. This is usually caused when the trajectory data is faulty or the object's orbit has decayed.
Visualization observer readout
Observer readout values are unavailable because the object's trajectory could not be propagated. This is usually caused when the trajectory data is faulty or the object's orbit has decayed.
Orbital elements
Apogee altitude147.231 km
Perigee altitude140.506 km
Semi-major axis6,522.006 km
Eccentricity0.0005156
Inclination97.6603°
RAAN349.9044°
Arg. of periapsis249.152°
True anomaly259.62438°
Mean anomaly259.6825°
Eccentric anomaly259.65344°
Mean motion4.1207 °/min
BSTAR0.00028964
Orbital period87.36 mins
Loading maneuver chart data...
Loading historical data...
Loading historical data...
Loading historical data...
Loading historical data...
Loading historical data...
Loading historical data...
Loading historical data...

YAOGAN 23 Visibility forecast

Observer location: undefined°, undefined

This satellite is decayed
Span
Click to sort rows by Start time (UTC) header in descending order
Start Az.
Max El. time (UTC)
Max El. Az.
Max El.
End time (UTC)
End Az.
|